Springfield, OH

10:35 AM EST on February 23, 2017 (GMT -0500)
Springfield-Beckley Municipal

Weather History for KSGH - February, 2013

Change the Weather History Date:

Sunday, February 10, 2013

  Actual Average (KFFO) Record (KFFO)
Temperature  
Mean Temperature 34 °F -  
Max Temperature 45 °F 39 °F 55 °F (1999)
Min Temperature 22 °F 22 °F 0 °F (2011)
Degree Days  
Heating Degree Days 32    
Moisture  
Dew Point 27 °F    
Average Humidity 67    
Maximum Humidity 86    
Minimum Humidity 52    
Precipitation  
Precipitation 0.00 in - - ()
Sea Level Pressure  
Sea Level Pressure 30.05 in    
Wind  
Wind Speed 11 mph (SE)    
Max Wind Speed 18 mph    
Max Gust Speed 28 mph    
Visibility 9 miles    
Events Rain    
Averages and records for this station are not official NWS values.
T = Trace of Precipitation, MM = Missing Value Source: NWS Daily Summary

Daily Weather History Graph

Daily Weather History Graph

Search for Another Location

Airport or City:

Trip Planner

Search our weather history database for the weather conditions in past years. The results will help you decide how hot, cold, wet, or windy it might be!

Date:

Astronomy

Feb. 10, 2013 Rise Set
Actual Time 7:33 AM EST 6:05 PM EST
Civil Twilight 7:05 AM EST 6:33 PM EST
Nautical Twilight 6:33 AM EST 7:05 PM EST
Astronomical Twilight 6:02 AM EST 7:37 PM EST
Moon 7:23 AM EST (2/10) 6:55 PM EST (2/10)
Length of Visible Light 11h 28m
Length of Day
10h 32m
New Moon, 0% of the Moon is Illuminated
Feb 10
New Moon
Feb 17
First Quarter
Feb 25
Full
Mar 4
Last Quarter
Mar 11
New

Hourly Weather History & Observations

Time (EST) Temp. Windchill Dew Point Humidity Pressure Visibility Wind Dir Wind Speed Gust Speed Precip Events Conditions
12:56 AM 22.1 °F 13.7 °F 16.2 °F 78% 30.28 in 9.0 mi ESE 6.9 mph - N/A   Clear
1:56 AM 27.1 °F 16.4 °F 18.1 °F 69% 30.25 in 9.0 mi ESE 12.7 mph - N/A   Clear
2:56 AM 27.1 °F 17.5 °F 18.1 °F 69% 30.25 in 9.0 mi SE 10.4 mph - N/A   Clear
3:56 AM 28.0 °F 18.6 °F 19.0 °F 69% 30.23 in 10.0 mi SE 10.4 mph - N/A   Clear
4:56 AM 28.0 °F 18.6 °F 19.0 °F 69% 30.22 in 9.0 mi SE 10.4 mph - N/A   Clear
5:56 AM 29.1 °F 19.4 °F 19.0 °F 66% 30.21 in 10.0 mi ESE 11.5 mph - N/A   Clear
6:56 AM 29.1 °F 19.4 °F 19.0 °F 66% 30.22 in 10.0 mi SE 11.5 mph - N/A   Clear
7:56 AM 29.1 °F 20.0 °F 20.1 °F 69% 30.21 in 8.0 mi SE 10.4 mph - N/A   Clear
8:56 AM 32.0 °F 24.2 °F 21.0 °F 64% 30.18 in 8.0 mi SE 9.2 mph - N/A   Clear
9:56 AM 34.0 °F 26.0 °F 23.0 °F 64% 30.16 in 8.0 mi SE 10.4 mph - N/A   Overcast
10:56 AM 36.0 °F 29.6 °F 24.1 °F 62% 30.17 in 9.0 mi SE 8.1 mph - N/A   Overcast
11:56 AM 39.9 °F 34.5 °F 26.1 °F 58% 30.11 in 9.0 mi SE 8.1 mph - N/A   Mostly Cloudy
12:56 PM 41.9 °F 36.3 °F 28.0 °F 58% 30.06 in 9.0 mi SE 9.2 mph - N/A   Mostly Cloudy
1:56 PM 43.9 °F 38.3 °F 27.1 °F 52% 30.01 in 9.0 mi SE 10.4 mph - N/A   Scattered Clouds
2:56 PM 45.0 °F 40.1 °F 30.0 °F 56% 29.99 in 9.0 mi SE 9.2 mph - N/A   Clear
3:56 PM 45.0 °F 40.6 °F 31.1 °F 58% 29.97 in 9.0 mi SE 8.1 mph - 0.00 in   Partly Cloudy
4:56 PM 43.0 °F 37.2 °F 31.1 °F 63% 29.96 in 9.0 mi SE 10.4 mph - N/A   Mostly Cloudy
5:56 PM 43.0 °F 35.1 °F 29.1 °F 58% 29.87 in 8.0 mi SE 17.3 mph - 0.00 in Rain Light Rain
6:56 PM 43.9 °F 37.9 °F 31.1 °F 61% 29.91 in 10.0 mi South 11.5 mph - 0.00 in   Overcast
7:38 PM 44.6 °F 37.8 °F 35.6 °F 71% 29.86 in 10.0 mi South 15.0 mph - N/A   Overcast
7:56 PM 43.9 °F 35.9 °F 34.9 °F 71% 29.88 in 10.0 mi South 18.4 mph 26.5 mph N/A   Overcast
8:56 PM 43.9 °F 36.5 °F 36.9 °F 76% 29.86 in 10.0 mi SSE 16.1 mph 27.6 mph N/A   Overcast
9:56 PM 43.9 °F 37.2 °F 37.9 °F 80% 29.86 in 8.0 mi South 13.8 mph 21.9 mph N/A   Overcast
10:56 PM 43.9 °F 37.2 °F 39.9 °F 86% 29.83 in 6.0 mi South 13.8 mph 23.0 mph N/A   Overcast
11:56 PM 45.0 °F 38.5 °F 39.9 °F 82% 29.81 in 9.0 mi South 13.8 mph - N/A   Overcast